星链-34814 (STARLINK-34814)

导读

STARLINK-34814是美国SpaceX公司星链星座的成员卫星,于2025年8月4日发射入轨。星链星座旨在为全球提供低轨宽带互联网服务,该卫星采用平板设计、搭载氪工质霍尔推进器,配备Ku/Ka波段通信载荷与光学星间链路,具备自主避撞能力,设计寿命5-7年,寿命末期将主动离轨再入大气层烧毁,减少太空垃圾残留,是星链全球组网进程中的一环。

基本信息
目录编号:
65100
目录名称:
STARLINK-34814
国际标识:
2025-167Y
轨道中心:
EARTH
卫星名称:
星链-34814
卫星全名:
星链-34814 (STARLINK-34814)
卫星状态:
在轨 (已飞行403 天)
发射日期:
2025-08-04 UTC
国别 :
美国 (US)
星等 :
--
该卫星已列入 空间交会检测服务 Space Conjunction Data Service (SCDS) ,当前飞行风险评估等级: 高风险
轨道信息
数据来源 国际轨道数据 AOE轨道数据
星历时间 2026-09-10T14:19:16+0800
1天前
查看轨道信息
2026-09-06T06:00:00+0800
5天前
查看轨道信息
半长轴 6840.786km 6840.907km
偏心率 0.0001306 0.0001203
轨道倾角 53.158° 53.158°
近地点辐角 78.543° 79.390°
升交点赤经 245.451° 265.771°
平近点角 281.572° 16.921°
近地点 461.755km 461.947km
远地点 463.543km 463.593km
周期 93.847分钟 93.849分钟
每日圈数 15.344185 15.343776
详细信息
固有亮度:
5
最大亮度:
2.5
卫星平台:
Starlink V1.0
覆盖范围:
全球
运营商:
太空探索技术公司
运营商所在国:
美国
制造商(研发单位):
太空探索技术公司
制造商所在国:
美国
使用方式:
暂无
卫星简介
Starlink 计划是 SpaceX 推出的全球卫星互联网项目,通过发射低轨道卫星,为全球尤其是偏远地区提供高速、低延迟的互联网服务。自 2019 年起,Starlink 已部署数千颗卫星,旨在缩小全球数字鸿沟,推动互联网普及。该项目还为军事、航空等行业提供通信支持,带来广泛经济效益。
2D轨道图
3D轨道图
轨道高度分析图
轨道倾角分析图
轨道综合分析图
查看轨道综合分析图
交会数据列表
事件ID 空间交会对象 最接近时刻(TCA) 交会距离 交会风险概率(CRP) 交会风险指数(CRI) 操作
CDM_260913-054606-510006-923921
2026-09-13T
05:46:29+0000
0.188 km
中距离
5.790665E-4 高风险 0.9
CDM_260911-174805-320806-510021
2026-09-11T
17:48:25+0000
0.606 km
远距离
9.784514E-5 中风险 0.75
CDM_260911-152705-320806-510022
2026-09-11T
15:27:40+0000
0.691 km
远距离
6.719675E-5 中风险 0.72
CDM_260913-142206-510006-923921
2026-09-13T
14:22:18+0000
0.617 km
远距离
5.719833E-5 中风险 0.7
CDM_260912-023405-213706-510021
2026-09-12T
02:34:54+0000
0.704 km
远距离
5.180405E-5 中风险 0.69
CDM_260913-113606-230106-510021
2026-09-13T
11:36:33+0000
0.940 km
远距离
2.887602E-5 中风险 0.64
CDM_260912-005805-357206-510022
2026-09-12T
00:58:43+0000
0.784 km
远距离
2.794481E-5 中风险 0.64
CDM_260912-062605-357206-510022
2026-09-12T
06:26:59+0000
0.893 km
远距离
1.806641E-5 中风险 0.6
CDM_260913-131006-230106-510021
2026-09-13T
13:10:20+0000
1.137 km
极远距离
1.495019E-5 中风险 0.58
CDM_260913-100706-510006-785321
2026-09-13T
10:07:51+0000
1.186 km
极远距离
1.312285E-5 中风险 0.57
与全量物体交会距离演化趋势
与全量物体交会风险概率演化趋势